User: anonymous   Login
Location: Mt. Chestnut Observatory
(40.9038°N, 79.9956°W)
Time: 05:04:33
(UTC-04:00)
Language:

Cosmos 2034 Rocket - Orbit

View from above orbital plane
View from above orbital plane
View from above satellite
View from above satellite

Ground track
Ground track

The orbit data is extracted from the following two-line orbital elements,

1 20150U 89059B   16180.08972211 -.00000030  00000-0 -46789-4 0  9998
2 20150  82.9384 356.7744 0028729 188.6534 310.9889 13.75619611351707
Epoch (UTC): 28 June 2016 02:09:11
Eccentricity: 0.0028729
inclination: 82.9384°
perigee height: 958 km
apogee height: 1000 km
right ascension of ascending node: 356.7744°
argument of perigee: 188.6534°
revolutions per day: 13.75619611
mean anomaly at epoch: 310.9889°
orbit number at epoch: 35170

The dashed part of the orbit path shows where the satellite is in the earth's shadow,  

DLR